Weather History for KRAC - March, 2013

Change the Weather History Date:

Monday, March 25, 2013

  Actual Average Record
Temperature  
Mean Temperature 35 °F -  
Max Temperature 37 °F 43 °F 75 °F (2007)
Min Temperature 33 °F 28 °F 7 °F (1960)
Degree Days  
Heating Degree Days 30    
Moisture  
Dew Point 25 °F    
Average Humidity 67    
Maximum Humidity 81    
Minimum Humidity 61    
Precipitation  
Precipitation 0.00 in - - ()
Sea Level Pressure  
Sea Level Pressure 29.90 in    
Wind  
Wind Speed 19 mph (North)    
Max Wind Speed 23 mph    
Max Gust Speed 34 mph    
Visibility 10 miles    
Events Snow    
Averages and records for this station are not official NWS values.
T = Trace of Precipitation, MM = Missing Value Source: NWS Daily Summary

Daily Weather History Graph

Daily Weather History Graph

Search for Another Location

Airport or City:

Trip Planner

Search our weather history database for the weather conditions in past years. The results will help you decide how hot, cold, wet, or windy it might be!

Date:

Astronomy

Mar. 25, 2013 Rise Set
Actual Time 6:45 AM CDT 7:09 PM CDT
Civil Twilight 6:16 AM CDT 7:37 PM CDT
Nautical Twilight 5:43 AM CDT 8:11 PM CDT
Astronomical Twilight 5:09 AM CDT 8:45 PM CDT
Moon 5:39 PM CDT (3/25) 5:30 AM CDT (3/25)
Length of Visible Light 13h 21m
Length of Day
12h 24m
Waxing Gibbous, 96% of the Moon is Illuminated
Mar 25
Waxing Gibbous
Mar 27
Full
Apr 2
Last Quarter
Apr 10
New
Apr 18
First Quarter

Hourly Weather History & Observations

Time (CDT) Temp. Windchill Dew Point Humidity Pressure Visibility Wind Dir Wind Speed Gust Speed Precip Events Conditions
12:53 AM 33.1 °F 20.6 °F 26.1 °F 75% 29.78 in 10.0 mi North 23.0 mph 34.5 mph N/A   Overcast
1:32 AM 33.8 °F 21.9 °F 26.6 °F 75% 29.76 in 10.0 mi North 21.9 mph 34.5 mph N/A   Overcast
1:53 AM 33.1 °F 20.9 °F 24.1 °F 70% 29.78 in 10.0 mi NNE 21.9 mph 27.6 mph N/A   Overcast
2:53 AM 34.0 °F 23.4 °F 21.9 °F 61% 29.77 in 10.0 mi NNE 17.3 mph 28.8 mph N/A   Overcast
3:53 AM 34.0 °F 22.1 °F 21.9 °F 61% 29.76 in 10.0 mi NE 21.9 mph 27.6 mph N/A   Overcast
4:53 AM 35.1 °F 25.2 °F 24.1 °F 64% 29.77 in 10.0 mi NNE 16.1 mph 28.8 mph N/A   Overcast
6:53 AM 35.1 °F 23.5 °F 25.0 °F 67% 29.80 in 10.0 mi NNE 21.9 mph 29.9 mph N/A   Overcast
7:31 AM 35.6 °F 25.5 °F 26.6 °F 70% 29.79 in 10.0 mi NNE 17.3 mph 25.3 mph N/A   Overcast
7:53 AM 35.1 °F 24.8 °F 26.1 °F 70% 29.82 in 10.0 mi NNE 17.3 mph 26.5 mph N/A   Overcast
8:38 AM 35.6 °F 25.2 °F 26.6 °F 70% 29.82 in 10.0 mi NNE 18.4 mph 25.3 mph N/A   Overcast
8:53 AM 36.0 °F 25.0 °F 26.1 °F 67% 29.84 in 10.0 mi NNE 20.7 mph 31.1 mph N/A   Overcast
9:53 AM 35.1 °F 24.5 °F 26.1 °F 70% 29.86 in 10.0 mi North 18.4 mph 25.3 mph N/A   Overcast
10:09 AM 33.8 °F 23.2 °F 26.6 °F 75% 29.85 in 9.0 mi North 17.3 mph 26.5 mph 0.00 in Snow Light Snow
10:35 AM 33.8 °F 22.8 °F 28.4 °F 81% 29.86 in 5.0 mi North 18.4 mph 26.5 mph 0.00 in Snow Light Snow
10:53 AM 35.1 °F 24.5 °F 27.0 °F 72% 29.89 in 5.0 mi North 18.4 mph 26.5 mph 0.00 in Snow Light Snow
11:53 AM 35.1 °F 24.1 °F 27.0 °F 72% 29.91 in 10.0 mi North 19.6 mph 28.8 mph 0.00 in   Overcast
12:53 PM 35.1 °F 24.1 °F 27.0 °F 72% 29.92 in 10.0 mi North 19.6 mph 28.8 mph N/A   Overcast
1:53 PM 36.0 °F 24.4 °F 25.0 °F 64% 29.93 in 10.0 mi North 23.0 mph 32.2 mph N/A   Overcast
2:15 PM 37.4 °F 26.9 °F 26.6 °F 65% 29.91 in 10.0 mi North 20.7 mph 27.6 mph N/A   Overcast
2:53 PM 37.0 °F 27.0 °F 25.0 °F 62% 29.94 in 10.0 mi North 18.4 mph 27.6 mph N/A   Overcast
3:53 PM 36.0 °F 25.6 °F 24.1 °F 62% 29.96 in 10.0 mi North 18.4 mph 31.1 mph N/A   Overcast
4:53 PM 35.1 °F 25.5 °F 23.0 °F 61% 29.99 in 10.0 mi North 15.0 mph 21.9 mph N/A   Overcast
5:53 PM 35.1 °F 25.5 °F 24.1 °F 64% 30.01 in 10.0 mi North 15.0 mph - N/A   Overcast
6:53 PM 35.1 °F 26.9 °F 26.1 °F 70% 30.04 in 10.0 mi North 11.5 mph - N/A   Overcast
7:53 PM 35.1 °F 26.9 °F 24.1 °F 64% 30.06 in 10.0 mi North 11.5 mph - 0.00 in   Overcast
8:53 PM 36.0 °F 29.6 °F 24.1 °F 62% 30.07 in 10.0 mi NW 8.1 mph - N/A   Overcast
9:53 PM 35.1 °F 30.1 °F 24.1 °F 64% 30.09 in 10.0 mi NW 5.8 mph - N/A   Overcast
10:53 PM 35.1 °F 31.0 °F 23.0 °F 61% 30.09 in 10.0 mi NW 4.6 mph - N/A   Overcast
11:53 PM 35.1 °F 29.3 °F 23.0 °F 61% 30.10 in 10.0 mi NNW 6.9 mph - N/A   Overcast